Location: Piotrkow Trybunalski
(51.4000°N, 19.6830°E)
Time: 00:44:16
(UTC+02:00)

XW-2A - Visible Passes

Search period start: 01 April 2023 00:00
Search period end: 11 April 2023 00:00
Orbit: 291 x 298 km, 97.1° (Epoch: 31 March)

Date Brightness Start Highest point End Pass type
(mag) Time Alt. Az. Time Alt. Az. Time Alt. Az.
01 Apr ? 21:34:50 12° NNE 21:34:50 12° NNE 21:35:07 10° N visible
02 Apr ? 21:40:54 13° N 21:40:54 13° N 21:41:16 10° N visible
03 Apr ? 21:46:17 14° N 21:46:17 14° N 21:46:43 10° N visible
04 Apr ? 21:50:57 14° N 21:50:57 14° N 21:51:27 10° N visible
05 Apr ? 21:54:56 15° N 21:54:56 15° N 21:55:29 10° N visible
06 Apr ? 21:58:12 16° N 21:58:12 16° N 21:58:49 10° N visible
07 Apr ? 22:00:47 17° N 22:00:47 17° N 22:01:27 10° N visible
08 Apr ? 22:02:40 17° N 22:02:40 17° N 22:03:24 10° N visible
09 Apr ? 22:03:52 18° N 22:03:52 18° N 22:04:40 10° N visible
10 Apr ? 22:04:21 20° N 22:04:21 20° N 22:05:14 10° N visible
